Regional Weather Roundup
Issued by NWS

Home | Current Version | Previous Version | Graphics & Text | Print | Product List | Glossary On
Versions: 1 2 3 4 5 6 7 8 9 10 11 12 13 14 15 16 17 18 19 20 21 22 23 24 25 26 27 28 29 30 31 32 33 34 35 36 37 38 39 40 41 42 43 44 45 46 47 48 49
000
ASUS43 KDMX 280207
RWRIA

WEATHER ROUNDUP FOR IOWA
NATIONAL WEATHER SERVICE DES MOINES IA
800 PM CST SAT DEC 27 2014

NOTE: "FAIR" INDICATES FEW OR NO CLOUDS BELOW 12,000 FEET WITH NO
SIGNIFICANT WEATHER AND/OR OBSTRUCTIONS TO VISIBILITY.

* - THESE STATIONS ARE NOT NWS STATIONS...THUS NOT UNDER NWS
QUALITY CONTROL.  THEY ALSO DO NOT REPORT WEATHER SUCH
AS PRECIPITATION OR FOG.

IAZ001>003-012>014-020>022-031>034-043>046-280300-
   NORTHWEST IOWA

CITY           SKY/WX    TMP DP  RH WIND       PRES   REMARKS
CARROLL *      CLEAR     14  10  85 W9        30.21S WCI   2
CHEROKEE *     CLEAR      9   7  92 S5        30.19F WCI   0
DENISON *      CLEAR     16  12  86 CALM      30.20S
LE MARS *      CLEAR      9   7  92 CALM      30.19F
ORANGE CITY *  CLEAR     12   9  85 S5        30.16S WCI   4
SHELDON *      CLEAR      9   7  92 SW5       30.15S WCI   0
SIOUX CITY     CLEAR     12   8  84 S3        30.21F
SPENCER        CLEAR      9   4  80 SW9       30.15F WCI  -4
STORM LAKE *   CLEAR     12   9  85 W14       30.18S WCI  -3
$$

IAZ055>058-069>071-079>083-090>094-280300-
   SOUTHWEST IOWA

CITY           SKY/WX    TMP DP  RH WIND       PRES   REMARKS
ATLANTIC *     CLEAR     19  14  79 CALM      30.23S
AUDUBON *      CLEAR     18  10  73 CALM      30.21F
CLARINDA *     CLEAR     23  18  80 W5        30.27S WCI  17
COUNCIL BLFS * CLEAR     19  16  86 NW5       30.22S WCI  13
CRESTON *      CLEAR     19  18  93 W9        30.22S WCI   9
HARLAN  *      CLEAR     14  14 100 CALM      30.26S
LAMONI         CLEAR     22  18  85 W6        30.22S WCI  14
RED OAK *      PTCLDY    19  18  93 W5        30.25S WCI  13
SHENANDOAH *   CLEAR     23  19  86 CALM      30.27R
$$

IAZ047>049-059>061-072>074-084-280300-
   CENTRAL IOWA

CITY           SKY/WX    TMP DP  RH WIND       PRES   REMARKS
AMES           CLEAR     20  15  81 NW10      30.22S WCI   9
ANKENY *       CLEAR     21  18  86 NW3       30.22S
CHARITON *     CLOUDY    25  21  86 W8        30.22S WCI  16
DES MOINES     PTCLDY    23  18  81 CALM      30.22S
GRINNELL*      CLOUDY    25  21  86 W13       30.21R WCI  13
KNOXVILLE *    CLOUDY    25  21  86 W5        30.21S WCI  19
MARSHALLTOWN   CLEAR     20  16  84 W10       30.19S WCI   9
PELLA *        CLOUDY    27  21  80 NW7       30.23S WCI  19
PERRY *          N/A     19  16  86 NW5       30.22S WCI  13
$$

IAZ004>006-015-016-023>025-035-036-280300-
   NORTH CENTRAL IOWA

CITY           SKY/WX    TMP DP  RH WIND       PRES   REMARKS
ALGONA *       CLEAR     14  10  85 SW13      30.17S WCI   0
CLARION *      CLEAR     12  12 100 SW9       30.18F WCI   0
ESTHERVILLE    CLEAR     11   7  84 W8        30.15R WCI  -1
FORT DODGE *   CLEAR     12   7  79 W6        30.20F WCI   3
MASON CITY     CLEAR     15  10  80 W13       30.16F WCI   1
FOREST CITY *  CLEAR     14  10  85 SW6       30.15F WCI   5
IOWA FALLS *     N/A     18  14  86 W9        30.20R WCI   6
$$

IAZ007>011-017>019-026>030-037>042-050>054-066-280300-
   NORTHEAST IOWA

CITY           SKY/WX    TMP DP  RH WIND       PRES   REMARKS
CEDAR RAPIDS   CLEAR     22  19  89 W13       30.18S WCI  10
CHARLES CITY * CLEAR     16  10  79 W6        30.17S WCI   7
CLINTON *      CLOUDY    28  21  74 W14G21    30.19R WCI  17
DECORAH *      CLEAR     16  12  86 W8        30.14S WCI   5
DUBUQUE        MOCLDY    23  18  81 W13       30.14S WCI  11
MONTICELLO *   MOCLDY    23  21  93 W12       30.16F WCI  12
OELWEIN *      CLEAR     19  14  79 W12       30.17R WCI   7
WATERLOO       CLEAR     18  13  80 W6        30.19R WCI  10
$$

IAZ064-065-067-068-078-280300-
   EAST CENTRAL IOWA

CITY           SKY/WX    TMP DP  RH WIND       PRES   REMARKS
DAVENPORT      CLOUDY    28  21  75 NW14      30.18R WCI  17
IOWA CITY      PTCLDY    26  21  81 W12       30.21S WCI  16
MT. PLEASANT * CLOUDY    28  23  80 W12       30.21S WCI  18
MUSCATINE *    CLOUDY    28  23  80 NW10      30.21R WCI  19
QUAD CITIES    CLOUDY    29  22  75 NW17      30.18R WCI  17
$$

IAZ062-063-075>077-085>089-095>099-280300-
   SOUTHEAST IOWA

CITY           SKY/WX    TMP DP  RH WIND       PRES   REMARKS
BURLINGTON     CLOUDY    30  23  75 NW10      30.20S WCI  21
FAIRFIELD *    CLOUDY    28  21  74 NW9G16    30.21S WCI  20
FORT MADISON * CLOUDY    30  25  80 NW9       30.21S WCI  22
KEOKUK *       CLOUDY    30  23  74 NW9       30.21S WCI  22
OSKALOOSA *    CLOUDY    27  21  80 W14       30.22S WCI  15
CENTERVILLE *  CLOUDY    27  23  86 W12       30.23S WCI  16
OTTUMWA        CLOUDY    27  20  75 W10       30.21S WCI  17
WASHINGTON *   CLOUDY    28  27  93 NW10      30.20S WCI  19
$$

ABBREVIATIONS USED IN REMARKS
   TC - TEMPERATURES IN CELSIUS
  WCI - WIND CHILL INDEX
   HX - HEAT INDEX
  VSB - VISIBILITY
$$



USA.gov is the U.S. government's official web portal to all federal, state and local government web resources and services.